AB8DT-10 Weather Reports


time (UTC)temp
C
wind
direction
speed
KPH
gust
KPH
rain 1hr
cm
rain 24hr
cm
rain mn
cm
humidity
%
barometer
mb
20260507030646 8 331 0.0 0.0 0.00 0.00 0.00 51
20260507030146 8 331 0.0 0.0 0.00 0.00 0.00 50
20260507025646 8 331 0.0 4.8 0.00 0.00 0.00 49
20260507025146 8 272 0.0 4.8 0.00 0.00 0.00 49
20260507024646 8 299 3.2 3.2 0.00 0.00 0.00 48
20260507024146 8 254 0.0 3.2 0.00 0.00 0.00 48
20260507023646 8 306 0.0 8.0 0.00 0.00 0.00 48
20260507023146 8 299 0.0 6.4 0.00 0.00 0.00 47
20260507022646 8 333 0.0 9.7 0.00 0.00 0.00 47
20260507022146 8 278 4.8 9.7 0.00 0.00 0.00 47
20260507021646 8 306 1.6 11.3 0.00 0.00 0.00 47
20260507021146 8 303 4.8 9.7 0.00 0.00 0.00 48
20260507020646 8 306 3.2 8.0 0.00 0.00 0.00 48
20260507020146 8 303 4.8 9.7 0.00 0.00 0.00 48
20260507015646 8 355 0.0 8.0 0.00 0.00 0.00 48
20260507015146 8 296 8.0 11.3 0.00 0.00 0.00 48
20260507014646 8 292 4.8 8.0 0.00 0.00 0.00 48
20260507014146 9 296 4.8 8.0 0.00 0.00 0.00 48
20260507013646 9 326 0.0 8.0 0.00 0.00 0.00 47
20260507013146 9 307 1.6 9.7 0.00 0.00 0.00 48
20260507012646 9 277 9.7 9.7 0.00 0.00 0.00 48
20260507012146 9 282 0.0 8.0 0.00 0.00 0.00 47
20260507011646 9 310 3.2 9.7 0.00 0.00 0.00 47
20260507011146 9 286 6.4 8.0 0.00 0.00 0.00 47
20260507010646 9 288 1.6 8.0 0.00 0.00 0.00 46
20260507010146 9 284 3.2 9.7 0.00 0.00 0.00 46
20260507005646 9 306 4.8 11.3 0.00 0.00 0.00 45
20260507005146 10 296 6.4 8.0 0.00 0.00 0.00 45
20260507004646 9 267 6.4 11.3 0.00 0.00 0.00 46
20260507004146 10 284 4.8 12.9 0.00 0.00 0.00 45
20260507003646 10 296 6.4 12.9 0.00 0.00 0.00 44
20260507003146 10 309 8.0 12.9 0.00 0.00 0.00 44
20260507002646 10 292 3.2 14.5 0.00 0.00 0.00 43
20260507002146 10 298 8.0 14.5 0.00 0.00 0.00 42
20260507001646 10 281 1.6 14.5 0.00 0.00 0.00 43
20260507001146 10 312 8.0 19.3 0.00 0.00 0.00 42
20260507000646 10 310 9.7 14.5 0.00 0.00 0.00 41
20260507000146 10 312 3.2 17.7 0.00 0.00 0.00 41
20260506235646 10 313 3.2 9.7 0.00 0.00 0.00 42
20260506235146 10 292 4.8 12.9 0.00 0.00 0.00 41
20260506234646 10 320 4.8 17.7 0.00 0.00 0.00 41
20260506234146 10 284 11.3 16.1 0.00 0.00 0.00 40
20260506233646 10 299 6.4 17.7 0.00 0.00 0.00 41
20260506233146 10 292 9.7 17.7 0.00 0.00 0.00 40
20260506232646 11 306 9.7 17.7 0.00 0.00 0.00 40
20260506232146 10 289 12.9 17.7 0.00 0.00 0.00 39
20260506231646 10 291 11.3 17.7 0.00 0.00 0.00 39
20260506231146 11 334 8.0 14.5 0.00 0.00 0.00 39
20260506230646 11 265 3.2 16.1 0.00 0.00 0.00 40
20260506230146 10 293 8.0 25.7 0.00 0.00 0.00 38
20260506225646 10 288 12.9 22.5 0.00 0.00 0.00 38
20260506225146 11 341 12.9 17.7 0.00 0.00 0.00 38
20260506224646 11 320 8.0 20.9 0.00 0.00 0.00 37
20260506224146 11 271 14.5 29.0 0.00 0.00 0.00 36
20260506223646 11 338 6.4 22.5 0.00 0.00 0.00 38
20260506223146 11 277 19.3 19.3 0.00 0.00 0.00 37
20260506222647 11 270 9.7 19.3 0.00 0.00 0.00 37
20260506222147 11 278 14.5 19.3 0.00 0.00 0.00 36
20260506221646 11 268 16.1 22.5 0.00 0.00 0.00 35
20260506221147 11 295 14.5 24.1 0.00 0.00 0.00 36
20260506220647 11 305 19.3 29.0 0.00 0.00 0.00 36
20260506220147 11 329 6.4 27.4 0.00 0.00 0.00 37
20260506215647 11 323 14.5 24.1 0.00 0.00 0.00 36
20260506215147 11 289 9.7 25.7 0.00 0.00 0.00 35
20260506214647 11 309 12.9 29.0 0.00 0.00 0.00 35
20260506214147 11 292 12.9 27.4 0.00 0.00 0.00 35
20260506213647 11 1 17.7 20.9 0.00 0.00 0.00 35
20260506213147 11 282 20.9 20.9 0.00 0.00 0.00 34
20260506212647 11 257 9.7 27.4 0.00 0.00 0.00 34
20260506212147 11 330 3.2 19.3 0.00 0.00 0.00 36
20260506211647 11 15 8.0 24.1 0.00 0.00 0.00 38
20260506211147 11 337 9.7 24.1 0.00 0.00 0.00 37
20260506210647 11 300 19.3 20.9 0.00 0.00 0.00 36
20260506210147 11 323 8.0 20.9 0.00 0.00 0.00 38
20260506205647 11 320 20.9 27.4 0.00 0.00 0.00 34
20260506205147 11 317 16.1 27.4 0.00 0.00 0.00 37
20260506204647 11 319 17.7 20.9 0.00 0.00 0.00 36
20260506204147 11 299 6.4 22.5 0.00 0.00 0.00 38
20260506203647 11 299 14.5 24.1 0.00 0.00 0.00 36
20260506203147 11 274 17.7 25.7 0.00 0.00 0.00 35
20260506202647 11 268 16.1 32.2 0.00 0.00 0.00 35
20260506202147 11 310 16.1 27.4 0.00 0.00 0.00 33
20260506201647 11 248 24.1 24.1 0.00 0.00 0.00 39
20260506201147 11 300 9.7 22.5 0.00 0.00 0.00 35
20260506200647 11 270 1.6 22.5 0.00 0.00 0.00 36
20260506200147 11 277 14.5 25.7 0.00 0.00 0.00 37
20260506195647 11 270 9.7 27.4 0.00 0.00 0.00 35
20260506195147 11 326 6.4 25.7 0.00 0.00 0.00 37
20260506194647 11 288 4.8 27.4 0.00 0.00 0.00 39
20260506194147 11 265 17.7 24.1 0.00 0.00 0.00 35
20260506193647 11 317 9.7 17.7 0.00 0.00 0.00 39
20260506193147 11 274 14.5 22.5 0.00 0.00 0.00 36
20260506192647 11 279 9.7 19.3 0.00 0.00 0.00 37
20260506192147 11 281 19.3 22.5 0.00 0.00 0.00 37
20260506191647 11 265 20.9 32.2 0.00 0.00 0.00 35
20260506191147 11 316 11.3 25.7 0.00 0.00 0.00 35
20260506190647 11 302 6.4 27.4 0.00 0.00 0.00 35
20260506190147 11 264 19.3 25.7 0.00 0.00 0.00 35
20260506185647 11 265 20.9 25.7 0.00 0.00 0.00 36
20260506185147 11 284 12.9 32.2 0.00 0.00 0.00 35
20260506184647 11 268 12.9 30.6 0.00 0.00 0.00 35
20260506184147 11 282 22.5 32.2 0.00 0.00 0.00 37
20260506183647 10 291 16.1 29.0 0.00 0.00 0.00 39
20260506183147 10 317 6.4 25.7 0.00 0.00 0.00 37
20260506182647 10 320 22.5 30.6 0.00 0.00 0.00 37
20260506182147 10 265 12.9 27.4 0.00 0.00 0.00 37
20260506181647 10 315 14.5 25.7 0.00 0.00 0.00 37
20260506181147 10 320 17.7 27.4 0.00 0.00 0.00 38
20260506180647 10 317 14.5 27.4 0.00 0.00 0.00 40
20260506180147 10 12 14.5 25.7 0.00 0.00 0.00 38
20260506175647 10 337 8.0 27.4 0.00 0.00 0.00 40
20260506175147 10 326 24.1 24.1 0.00 0.00 0.00 44
20260506174647 10 351 11.3 27.4 0.00 0.00 0.00 40
20260506174147 10 293 16.1 25.7 0.00 0.00 0.00 39
20260506173647 10 270 11.3 17.7 0.00 0.00 0.00 38
20260506173147 10 37 9.7 19.3 0.00 0.00 0.00 40
20260506172647 10 305 16.1 19.3 0.00 0.00 0.00 41
20260506172147 10 293 8.0 24.1 0.00 0.00 0.00 40
20260506171647 10 286 6.4 19.3 0.00 0.00 0.00 39
20260506171147 10 296 9.7 19.3 0.00 0.00 0.00 38
20260506170647 10 261 19.3 19.3 0.00 0.00 0.00 40
20260506170147 10 286 16.1 17.7 0.00 0.00 0.00 40
20260506165647 10 306 9.7 16.1 0.00 0.00 0.00 41
20260506165147 10 296 8.0 14.5 0.00 0.00 0.00 41
20260506164647 10 345 8.0 17.7 0.00 0.00 0.00 41
20260506164147 10 324 17.7 20.9 0.00 0.00 0.00 39
20260506163647 11 343 11.3 11.3 0.00 0.00 0.00 44
20260506163147 10 337 6.4 12.9 0.00 0.00 0.00 44
20260506162647 10 284 3.2 19.3 0.00 0.00 0.00 44
20260506162147 10 309 6.4 25.7 0.00 0.00 0.00 44
20260506161647 9 0 3.2 22.5 0.00 0.00 0.00 41
20260506161147 10 329 17.7 25.7 0.00 0.00 0.00 41
20260506160647 10 303 1.6 16.1 0.00 0.00 0.00 40
20260506160147 10 351 6.4 27.4 0.00 0.00 0.00 42
20260506155647 9 337 11.3 20.9 0.00 0.00 0.00 42
20260506155147 9 322 11.3 19.3 0.00 0.00 0.00 40
20260506154647 9 288 12.9 24.1 0.00 0.00 0.00 41
20260506154147 10 262 17.7 17.7 0.00 0.00 0.00 44
20260506153647 10 279 8.0 14.5 0.00 0.00 0.00 43
20260506153147 9 264 8.0 20.9 0.00 0.00 0.00 45
20260506152647 10 279 9.7 11.3 0.00 0.00 0.00 44
20260506152147 9 25 0.0 11.3 0.00 0.00 0.00 45
20260506151647 10 298 0.0 11.3 0.00 0.00 0.00 45
20260506151147 9 35 3.2 11.3 0.00 0.00 0.00 45
20260506150647 9 358 0.0 19.3 0.00 0.00 0.00 45
20260506150147 9 295 12.9 20.9 0.00 0.00 0.00 42
20260506145647 9 49 0.0 4.8 0.00 0.00 0.00 48
20260506145147 9 305 0.0 9.7 0.00 0.00 0.00 48
20260506144647 8 330 0.0 9.7 0.00 0.00 0.00 49
20260506144147 8 267 0.0 11.3 0.00 0.00 0.00 48
20260506143648 9 1 6.4 12.9 0.00 0.00 0.00 48
20260506143147 9 43 6.4 8.0 0.00 0.00 0.00 49
20260506142647 9 126 3.2 3.2 0.00 0.00 0.00 51
20260506142147 9 354 0.0 6.4 0.00 0.00 0.00 54
20260506141647 9 195 4.8 9.7 0.00 0.00 0.00 55
20260506141147 8 234 8.0 9.7 0.00 0.00 0.00 55
20260506140647 8 203 9.7 9.7 0.00 0.00 0.00 57
20260506140147 8 187 1.6 8.0 0.00 0.00 0.00 59
20260506135647 8 135 8.0 8.0 0.00 0.00 0.00 60
20260506135147 7 156 3.2 9.7 0.00 0.00 0.00 61
20260506134647 7 153 4.8 9.7 0.00 0.00 0.00 62
20260506134147 7 182 1.6 8.0 0.00 0.00 0.00 62
20260506133647 7 147 8.0 8.0 0.00 0.00 0.00 63
20260506133147 7 102 4.8 11.3 0.00 0.00 0.00 65